Location: Emory University Observatory
(33.7903°N, 84.3267°W)
Time: 13:05:49
(UTC-04:00)

ISS - Pass Details

Date: 14 October 2017
Orbit: 401 x 408 km, 51.6° (Epoch: 18 October)

Event Time Altitude Azimuth Distance (km) Brightness Sun altitude
Rises 21:02:23 0° 306° (NW) 2,321 1.0 -25.3°
Reaches altitude 10° 21:04:33 10° 298° (WNW) 1,460 -0.1 -25.7°
Enters shadow 21:06:21 26° 276° (W) 831 -1.6 -26.1°
